Eagle River, WI

5:49 AM CDT on March 26, 2017 (GMT -0500)
Eagle River Union

Weather History for KEGV - October, 2013

Change the Weather History Date:

Sunday, October 27, 2013

  Actual Average Record
Temperature  
Mean Temperature 40 °F -  
Max Temperature 50 °F 48 °F 60 °F (1998)
Min Temperature 31 °F 32 °F 20 °F (2011)
Degree Days  
Heating Degree Days 25    
Moisture  
Dew Point 29 °F    
Average Humidity 75    
Maximum Humidity 99    
Minimum Humidity 41    
Precipitation  
Precipitation 0.00 in - - ()
Sea Level Pressure  
Sea Level Pressure 29.90 in    
Wind  
Wind Speed 6 mph (West)    
Max Wind Speed 18 mph    
Max Gust Speed 24 mph    
Visibility 10 miles    
Events Rain , Snow    
Averages and records for this station are not official NWS values.
T = Trace of Precipitation, MM = Missing Value Source: NWS Daily Summary

Daily Weather History Graph

Daily Weather History Graph

Search for Another Location

Airport or City:

Trip Planner

Search our weather history database for the weather conditions in past years. The results will help you decide how hot, cold, wet, or windy it might be!

Date:

Astronomy

Oct. 27, 2013 Rise Set
Actual Time 7:30 AM CDT 5:50 PM CDT
Civil Twilight 6:59 AM CDT 6:21 PM CDT
Nautical Twilight 6:24 AM CDT 6:56 PM CDT
Astronomical Twilight 5:50 AM CDT 7:30 PM CDT
Moon 12:06 AM CDT (10/27) 2:19 PM CDT (10/27)
Length of Visible Light 11h 21m
Length of Day
10h 19m
Last Quarter, 43% of the Moon is Illuminated
Oct 27
Last Quarter
Nov 3
New
Nov 9
First Quarter
Nov 17
Full
Nov 25
Last Quarter

Hourly Weather History & Observations

Time (CDT) Temp. Windchill Dew Point Humidity Pressure Visibility Wind Dir Wind Speed Gust Speed Precip Events Conditions
12:15 AM 33.4 °F - 28.9 °F 84% 29.95 in 10.0 mi Calm Calm - N/A   Overcast
12:35 AM 32.9 °F - 28.9 °F 85% 29.94 in 10.0 mi Calm Calm - N/A   Overcast
12:55 AM 32.5 °F - 29.3 °F 88% 29.94 in 10.0 mi Calm Calm - N/A   Overcast
1:15 AM 31.8 °F - 31.1 °F 97% 29.94 in 10.0 mi Calm Calm - N/A   Overcast
1:35 AM 32.0 °F - 31.1 °F 96% 29.93 in 10.0 mi Calm Calm - N/A   Overcast
1:55 AM 32.4 °F 29.1 °F 30.6 °F 93% 29.93 in 10.0 mi WSW 3.5 mph - N/A   Overcast
2:15 AM 32.9 °F - 30.2 °F 90% 29.92 in 10.0 mi Calm Calm - N/A   Overcast
2:35 AM 32.9 °F 29.8 °F 30.7 °F 92% 29.91 in 10.0 mi SW 3.5 mph - N/A   Overcast
2:55 AM 33.3 °F - 29.1 °F 85% 29.91 in 10.0 mi Calm Calm - N/A   Overcast
3:15 AM 33.4 °F 30.4 °F 28.6 °F 82% 29.90 in 10.0 mi SSW 3.5 mph - N/A   Overcast
3:35 AM 33.8 °F 28.6 °F 28.8 °F 82% 29.90 in 10.0 mi SW 5.8 mph - N/A   Overcast
3:55 AM 33.6 °F 30.6 °F 28.6 °F 82% 29.89 in 10.0 mi SW 3.5 mph - N/A   Overcast
4:15 AM 33.4 °F - 28.6 °F 82% 29.88 in 10.0 mi Calm Calm - N/A   Overcast
4:35 AM 32.9 °F - 28.6 °F 84% 29.88 in 10.0 mi Calm Calm - N/A   Overcast
4:55 AM 32.5 °F 29.3 °F 28.9 °F 87% 29.88 in 10.0 mi SW 3.5 mph - N/A   Overcast
5:15 AM 32.4 °F 27.9 °F 28.6 °F 86% 29.88 in 10.0 mi SW 4.6 mph - N/A   Mostly Cloudy
5:35 AM 32.0 °F - 28.4 °F 87% 29.88 in 10.0 mi Calm Calm - N/A   Scattered Clouds
5:55 AM 31.5 °F 28.1 °F 30.6 °F 96% 29.87 in 10.0 mi SW 3.5 mph - N/A   Mostly Cloudy
6:15 AM 32.2 °F 26.7 °F 29.7 °F 90% 29.86 in 10.0 mi SW 5.8 mph - N/A   Overcast
6:35 AM 32.0 °F 26.4 °F 28.4 °F 87% 29.85 in 10.0 mi SW 5.8 mph - N/A   Overcast
6:55 AM 32.2 °F 26.7 °F 28.2 °F 85% 29.84 in 10.0 mi SW 5.8 mph - N/A   Overcast
7:15 AM 32.2 °F 27.7 °F 28.0 °F 85% 29.85 in 10.0 mi SW 4.6 mph - N/A   Overcast
7:35 AM 32.0 °F 26.4 °F 27.5 °F 83% 29.85 in 10.0 mi SW 5.8 mph - N/A   Overcast
7:55 AM 32.5 °F 27.1 °F 27.3 °F 81% 29.84 in 10.0 mi SW 5.8 mph - N/A   Overcast
8:15 AM 32.9 °F 26.7 °F 27.3 °F 80% 29.85 in 10.0 mi SW 6.9 mph - N/A   Overcast
8:35 AM 33.1 °F 26.1 °F 27.3 °F 79% 29.85 in 10.0 mi SW 8.1 mph - N/A   Overcast
8:55 AM 33.6 °F 28.4 °F 26.8 °F 76% 29.84 in 10.0 mi SW 5.8 mph - N/A   Scattered Clouds
9:15 AM 34.2 °F 28.2 °F 27.1 °F 75% 29.85 in 10.0 mi WSW 6.9 mph - N/A   Scattered Clouds
9:35 AM 34.7 °F 27.5 °F 26.6 °F 72% 29.84 in 10.0 mi SW 9.2 mph - N/A   Scattered Clouds
9:55 AM 35.2 °F 27.6 °F 26.6 °F 71% 29.84 in 10.0 mi SW 10.4 mph 19.6 mph N/A   Scattered Clouds
10:15 AM 36.5 °F 28.7 °F 26.8 °F 68% 29.83 in 10.0 mi SW 11.5 mph - N/A   Clear
10:35 AM 38.7 °F 31.4 °F 27.0 °F 63% 29.83 in 10.0 mi WSW 11.5 mph 19.6 mph N/A   Clear
10:55 AM 38.3 °F 30.1 °F 26.6 °F 63% 29.82 in 10.0 mi WSW 13.8 mph 18.4 mph N/A   Clear
11:15 AM 40.1 °F 31.0 °F 26.2 °F 58% 29.82 in 10.0 mi SW 18.4 mph 21.9 mph N/A   Clear
11:35 AM 40.5 °F 31.8 °F 26.6 °F 58% 29.81 in 10.0 mi WSW 17.3 mph 23.0 mph N/A   Scattered Clouds
11:55 AM 39.2 °F 31.2 °F 26.2 °F 60% 29.81 in 10.0 mi SW 13.8 mph - N/A   Mostly Cloudy
12:15 PM 40.1 °F 33.6 °F 26.6 °F 59% 29.81 in 10.0 mi SW 10.4 mph - N/A   Overcast
12:35 PM 40.6 °F 33.8 °F 26.2 °F 57% 29.79 in 10.0 mi WSW 11.5 mph 16.1 mph N/A   Mostly Cloudy
12:55 PM 41.4 °F 35.7 °F 26.6 °F 56% 29.78 in 10.0 mi SW 9.2 mph - N/A   Mostly Cloudy
1:15 PM 44.4 °F 38.6 °F 26.8 °F 50% 29.77 in 10.0 mi SW 11.5 mph 16.1 mph N/A   Scattered Clouds
1:35 PM 46.0 °F 40.2 °F 26.8 °F 47% 29.76 in 10.0 mi SW 12.7 mph 19.6 mph N/A   Overcast
1:55 PM 45.9 °F 40.8 °F 26.1 °F 46% 29.75 in 10.0 mi SW 10.4 mph 20.7 mph N/A   Scattered Clouds
2:15 PM 47.8 °F - 25.9 °F 42% 29.76 in 10.0 mi West 16.1 mph 23.0 mph N/A   Scattered Clouds
2:35 PM 47.8 °F - 26.4 °F 43% 29.75 in 10.0 mi SW 9.2 mph 16.1 mph N/A   Scattered Clouds
2:55 PM 49.1 °F - 26.4 °F 41% 29.76 in 10.0 mi WSW 16.1 mph 24.2 mph N/A   Scattered Clouds
3:15 PM 49.3 °F - 26.2 °F 41% 29.77 in 10.0 mi West 15.0 mph 20.7 mph N/A   Scattered Clouds
5:35 PM 43.2 °F 37.4 °F 28.4 °F 56% 29.86 in 10.0 mi NNW 10.4 mph 17.3 mph N/A   Mostly Cloudy
5:55 PM 41.0 °F 32.5 °F 29.5 °F 64% 29.88 in 10.0 mi North 17.3 mph 24.2 mph N/A   Scattered Clouds
6:15 PM 40.5 °F 32.1 °F 29.1 °F 64% 29.91 in 10.0 mi NNW 16.1 mph 20.7 mph N/A   Mostly Cloudy
6:35 PM 39.7 °F 31.9 °F 28.2 °F 63% 29.92 in 10.0 mi NNW 13.8 mph 18.4 mph N/A   Overcast
6:55 PM 39.2 °F 31.2 °F 28.0 °F 64% 29.94 in 10.0 mi NNW 13.8 mph 17.3 mph N/A   Overcast
7:15 PM 39.2 °F 33.0 °F 28.0 °F 64% 29.94 in 10.0 mi North 9.2 mph 16.1 mph N/A   Overcast
7:35 PM 38.8 °F 33.8 °F 28.4 °F 66% 29.96 in 10.0 mi North 6.9 mph - N/A   Overcast
7:55 PM 38.7 °F 32.4 °F 28.6 °F 67% 29.97 in 10.0 mi North 9.2 mph - N/A   Overcast
8:15 PM 38.5 °F 32.1 °F 28.9 °F 69% 29.98 in 10.0 mi North 9.2 mph - N/A   Overcast
8:35 PM 37.8 °F 28.6 °F 30.6 °F 75% 30.00 in 10.0 mi North 16.1 mph - N/A   Light Drizzle
8:55 PM 35.6 °F 28.0 °F 32.0 °F 87% 30.02 in 4.0 mi North 10.4 mph - N/A Rain Rain
9:15 PM 35.6 °F 29.2 °F 33.8 °F 93% 30.03 in 10.0 mi North 8.1 mph - N/A   Overcast
9:35 PM 35.6 °F 29.9 °F 31.6 °F 85% 30.03 in 10.0 mi North 6.9 mph - N/A   Overcast
9:55 PM 34.9 °F 30.8 °F 31.8 °F 89% 30.05 in 10.0 mi North 4.6 mph - N/A   Overcast
10:15 PM 34.7 °F 25.9 °F 31.8 °F 89% 30.06 in 4.0 mi NNE 12.7 mph 18.4 mph N/A Snow Snow
10:35 PM 33.8 °F 24.8 °F 33.4 °F 99% 30.08 in 7.0 mi NNE 12.7 mph 20.7 mph N/A Snow Light Snow
10:55 PM 33.1 °F 23.9 °F 32.0 °F 96% 30.10 in 10.0 mi NNE 12.7 mph 16.1 mph N/A   Overcast
11:15 PM 33.1 °F 24.4 °F 29.5 °F 87% 30.11 in 10.0 mi NNE 11.5 mph 20.7 mph N/A   Overcast
11:35 PM 32.9 °F 23.2 °F 29.1 °F 86% 30.12 in 10.0 mi NNE 13.8 mph 21.9 mph N/A   Overcast
11:55 PM 32.5 °F 23.7 °F 27.7 °F 82% 30.13 in 10.0 mi NE 11.5 mph 20.7 mph N/A   Overcast